Starlink 35038

operational
NORAD ID: 65482 Int'l Des: 2025-195 Owner: SPXS Country: US Constellation: starlink
LEOCIRCULAR

Starlink 35038について

説明を読み込み中...

リアルタイム位置

3D地球を読み込み中...

次回通過

高度履歴

Altitude vs Time

uPlot chart will show altitude changes over time

軌道要素

1 65482U 25195AA 25294.58336806 .00107667 00000-0 35981-2 0 9993
2 65482 53.1594 184.4198 0001153 111.6037 262.3420 15.30172481 5981
Epoch: Oct 21, 2025 • Age: 7 hours

現在のステータス

高度 493.8 km
速度 7.62 km/s
衛星直下点 -51.80°S, 119.61°E
打ち上げ日 Sep 3, 2025
運用期間 0.1 years
タイプ internet

技術仕様

分類 Payload
質量 575.00 kg
乾燥質量 530.00 kg
総質量 575.00 kg
長さ 0.30 m
直径 4.10 m
スパン 29.00 m
形状 Box + pan
製造者 SPXS
バスタイプ Starlink V2MO
フェーズステータス In Orbit
所有者/国 SPXS/US

大規模コンステレーション

Loading constellations...